When you browse on this site, cookies collect data to enhance your experience and personalize the content and advertising you see.
Visit our Privacy Policy to learn more. By continuing to use the site, you agree to this use of cookies and data.
  • In Hungary
  • List of Countries
  • For 7 days
  • Water Temperature
  • Weather Map
  • News
  • Weather Widgets
  • user-avatar
    Login

    Hourly Weather Narew

    Today, 9 April, Thursday

    Time Temperature Precipitation Wind Pressure Humidity
    00:00 +9°C° 0 mm 2 mps 756 mmHg 58%
    01:00 +8°C° 0 mm 2 mps 755 mmHg 60%
    02:00 +8°C° 0 mm 2 mps 754 mmHg 62%
    03:00 +7°C° 0 mm 2 mps 754 mmHg 63%
    04:00 +7°C° 0 mm 2 mps 753 mmHg 63%
    05:00 +7°C° 0 mm 3 mps 753 mmHg 64%
    06:00 +8°C° 0 mm 3 mps 752 mmHg 61%
    07:00 +9°C° 0 mm 3 mps 752 mmHg 58%
    08:00 +11°C° 0 mm 4 mps 752 mmHg 55%
    09:00 +13°C° 0 mm 4 mps 751 mmHg 52%
    10:00 +15°C° 0 mm 4 mps 751 mmHg 49%
    11:00 +17°C° 0 mm 5 mps 750 mmHg 46%
    12:00 +19°C° 0 mm 6 mps 750 mmHg 43%
    13:00 +19°C° 0 mm 6 mps 749 mmHg 39%
    14:00 +21°C° 0 mm 7 mps 749 mmHg 34%
    15:00 +20°C° 0.2 mm 6 mps 749 mmHg 42%
    16:00 +17°C° 0.2 mm 6 mps 749 mmHg 49%
    17:00 +16°C° 0.2 mm 6 mps 749 mmHg 57%
    18:00 +14°C° 0.1 mm 6 mps 749 mmHg 61%
    19:00 +12°C° 0.1 mm 5 mps 749 mmHg 64%
    20:00 +9°C° 0.1 mm 5 mps 750 mmHg 68%
    21:00 +8°C° 0 mm 5 mps 750 mmHg 71%
    22:00 +7°C° 0 mm 4 mps 751 mmHg 74%
    23:00 +6°C° 0 mm 4 mps 751 mmHg 77%

    Tomorrow, 10 April, Friday

    Time Temperature Precipitation Wind Pressure Humidity
    00:00 +5°C° 0 mm 4 mps 752 mmHg 78%
    01:00 +4°C° 0 mm 4 mps 752 mmHg 80%
    02:00 +3°C° 0 mm 4 mps 752 mmHg 81%
    03:00 +3°C° 0 mm 4 mps 753 mmHg 81%
    04:00 +2°C° 0 mm 3 mps 753 mmHg 81%
    05:00 +2°C° 0 mm 3 mps 753 mmHg 81%
    06:00 +3°C° 0 mm 3 mps 754 mmHg 71%
    07:00 +3°C° 0 mm 3 mps 754 mmHg 62%
    08:00 +4°C° 0 mm 4 mps 755 mmHg 53%
    09:00 +6°C° 0 mm 4 mps 755 mmHg 48%
    10:00 +7°C° 0 mm 4 mps 755 mmHg 43%
    11:00 +8°C° 0 mm 4 mps 755 mmHg 37%
    12:00 +10°C° 0 mm 4 mps 755 mmHg 36%
    13:00 +11°C° 0 mm 4 mps 755 mmHg 35%
    14:00 +11°C° 0 mm 4 mps 755 mmHg 34%
    15:00 +11°C° 0 mm 4 mps 755 mmHg 35%
    16:00 +11°C° 0 mm 4 mps 754 mmHg 37%
    17:00 +11°C° 0 mm 4 mps 754 mmHg 38%
    18:00 +10°C° 0 mm 3 mps 754 mmHg 44%
    19:00 +8°C° 0 mm 2 mps 754 mmHg 50%
    20:00 +7°C° 0 mm 2 mps 754 mmHg 55%
    21:00 +6°C° 0 mm 2 mps 754 mmHg 57%
    22:00 +6°C° 0 mm 2 mps 754 mmHg 59%
    23:00 +5°C° 0 mm 2 mps 755 mmHg 61%

    Day after tomorrow, 11 April, Saturday

    Time Temperature Precipitation Wind Pressure Humidity
    00:00 +4°C° 0 mm 2 mps 755 mmHg 62%
    01:00 +3°C° 0 mm 2 mps 755 mmHg 62%
    02:00 +3°C° 0 mm 2 mps 755 mmHg 63%
    03:00 +2°C° 0 mm 2 mps 755 mmHg 67%
    04:00 +2°C° 0 mm 2 mps 755 mmHg 70%
    05:00 +1°C° 0 mm 2 mps 756 mmHg 74%
    06:00 +2°C° 0 mm 2 mps 756 mmHg 70%
    07:00 +3°C° 0 mm 2 mps 756 mmHg 67%
    08:00 +4°C° 0 mm 2 mps 757 mmHg 63%
    09:00 +6°C° 0 mm 2 mps 757 mmHg 56%
    10:00 +7°C° 0 mm 3 mps 757 mmHg 49%
    11:00 +8°C° 0 mm 3 mps 758 mmHg 42%
    12:00 +9°C° 0 mm 3 mps 758 mmHg 38%
    13:00 +10°C° 0 mm 3 mps 758 mmHg 35%
    14:00 +10°C° 0 mm 3 mps 758 mmHg 32%
    15:00 +10°C° 0 mm 3 mps 758 mmHg 33%
    16:00 +10°C° 0 mm 3 mps 757 mmHg 33%
    17:00 +10°C° 0 mm 3 mps 757 mmHg 33%
    18:00 +9°C° 0 mm 2 mps 757 mmHg 39%
    19:00 +7°C° 0 mm 2 mps 758 mmHg 44%
    20:00 +6°C° 0 mm 2 mps 758 mmHg 49%
    21:00 +5°C° 0 mm 2 mps 758 mmHg 52%
    22:00 +5°C° 0 mm 2 mps 758 mmHg 54%
    23:00 +4°C° 0 mm 2 mps 758 mmHg 57%

    12 April, Sunday

    Time Temperature Precipitation Wind Pressure Humidity
    00:00 +4°C° 0 mm 2 mps 758 mmHg 58%
    01:00 +3°C° 0 mm 2 mps 758 mmHg 60%
    02:00 +3°C° 0 mm 2 mps 758 mmHg 61%
    03:00 +3°C° 0 mm 2 mps 757 mmHg 62%
    04:00 +2°C° 0 mm 3 mps 757 mmHg 62%
    05:00 +2°C° 0 mm 3 mps 756 mmHg 62%
    06:00 +3°C° 0 mm 3 mps 756 mmHg 59%
    07:00 +4°C° 0 mm 4 mps 756 mmHg 55%
    08:00 +5°C° 0 mm 4 mps 756 mmHg 52%
    09:00 +6°C° 0 mm 5 mps 755 mmHg 49%
    10:00 +7°C° 0 mm 5 mps 755 mmHg 46%
    11:00 +9°C° 0 mm 5 mps 754 mmHg 43%
    12:00 +10°C° 0 mm 5 mps 754 mmHg 42%
    13:00 +12°C° 0 mm 5 mps 753 mmHg 42%
    14:00 +13°C° 0 mm 5 mps 753 mmHg 41%
    15:00 +13°C° 0 mm 5 mps 752 mmHg 43%
    16:00 +13°C° 0 mm 5 mps 751 mmHg 44%
    17:00 +14°C° 0 mm 4 mps 751 mmHg 45%
    18:00 +12°C° 0 mm 4 mps 750 mmHg 50%
    19:00 +11°C° 0 mm 4 mps 749 mmHg 55%
    20:00 +9°C° 0 mm 3 mps 749 mmHg 60%
    21:00 +9°C° 0 mm 3 mps 749 mmHg 60%
    22:00 +8°C° 0 mm 4 mps 748 mmHg 60%
    23:00 +7°C° 0 mm 4 mps 748 mmHg 60%

    13 April, Monday

    Time Temperature Precipitation Wind Pressure Humidity
    00:00 +7°C° 0 mm 4 mps 747 mmHg 61%
    01:00 +7°C° 0 mm 4 mps 747 mmHg 62%
    02:00 +6°C° 0 mm 4 mps 746 mmHg 63%
    03:00 +6°C° 0 mm 4 mps 746 mmHg 66%
    04:00 +7°C° 0 mm 3 mps 745 mmHg 70%
    05:00 +7°C° 0 mm 3 mps 745 mmHg 73%
    06:00 +7°C° 0 mm 4 mps 744 mmHg 73%
    07:00 +8°C° 0 mm 4 mps 744 mmHg 73%
    08:00 +11°C° 0 mm 4 mps 743 mmHg 73%
    09:00 +13°C° 0 mm 5 mps 742 mmHg 67%
    10:00 +15°C° 0 mm 6 mps 742 mmHg 61%
    11:00 +17°C° 0 mm 7 mps 741 mmHg 55%
    12:00 +17°C° 0.4 mm 7 mps 740 mmHg 54%
    13:00 +17°C° 0.4 mm 8 mps 740 mmHg 53%
    14:00 +18°C° 0.4 mm 8 mps 739 mmHg 52%
    15:00 +17°C° 0.8 mm 8 mps 738 mmHg 56%
    16:00 +16°C° 0.8 mm 7 mps 738 mmHg 60%
    17:00 +15°C° 0.8 mm 6 mps 737 mmHg 65%
    18:00 +13°C° 0.4 mm 6 mps 737 mmHg 71%
    19:00 +10°C° 0.4 mm 6 mps 737 mmHg 78%
    20:00 +9°C° 0.4 mm 6 mps 737 mmHg 85%
    21:00 +7°C° 0.2 mm 6 mps 738 mmHg 86%
    22:00 +5°C° 0.2 mm 6 mps 738 mmHg 86%
    23:00 +3°C° 0.2 mm 6 mps 739 mmHg 87%

    14 April, Tuesday

    Time Temperature Precipitation Wind Pressure Humidity
    00:00 +2°C° 0.4 mm 6 mps 739 mmHg 85%
    01:00 +1°C° 0.4 mm 6 mps 740 mmHg 83%
    02:00 -2°C° 0.4 mm 6 mps 740 mmHg 81%
    03:00 -2°C° 0 mm 6 mps 741 mmHg 78%
    04:00 -2°C° 0 mm 5 mps 742 mmHg 74%
    05:00 -2°C° 0 mm 5 mps 742 mmHg 71%
    06:00 -1°C° 0 mm 5 mps 743 mmHg 66%
    07:00 -1°C° 0 mm 5 mps 743 mmHg 61%
    08:00 0°C° 0 mm 5 mps 744 mmHg 56%
    09:00 +1°C° 0.1 mm 6 mps 744 mmHg 52%
    10:00 +2°C° 0.1 mm 6 mps 744 mmHg 48%
    11:00 +3°C° 0.1 mm 6 mps 744 mmHg 44%
    12:00 +4°C° 0.2 mm 6 mps 744 mmHg 43%
    13:00 +4°C° 0.2 mm 7 mps 744 mmHg 42%
    14:00 +4°C° 0.2 mm 7 mps 744 mmHg 42%
    15:00 +4°C° 0.1 mm 7 mps 744 mmHg 45%
    16:00 +3°C° 0.1 mm 7 mps 745 mmHg 48%
    17:00 +3°C° 0.1 mm 7 mps 745 mmHg 51%
    18:00 +2°C° 0.1 mm 6 mps 745 mmHg 55%
    19:00 +1°C° 0.1 mm 6 mps 746 mmHg 59%
    20:00 0°C° 0.1 mm 5 mps 747 mmHg 63%
    21:00 -1°C° 0 mm 5 mps 747 mmHg 66%
    22:00 -2°C° 0 mm 5 mps 747 mmHg 70%
    23:00 -2°C° 0 mm 5 mps 748 mmHg 74%
    Show more